Location: Praha
(50.0830°N, 14.4670°E)
Time: 17:43:37
(UTC+02:00)

ISS - Pass Details

Date: 21 May 2020
Orbit: 417 x 420 km, 51.6° (Epoch: 26 May)

Event Time Altitude Azimuth Distance (km) Brightness Sun altitude
Rises 23:53:59 0° 283° (WNW) 2,368 0.5 -18.0°
Reaches altitude 10° 23:56:05 10° 285° (WNW) 1,503 -0.6 -18.1°
Maximum altitude 23:59:27 80° 12° (NNE) 431 -3.7 -18.3°
Enters shadow 00:00:44 35° 96° (E) 693 -2.9 -18.3°
